Showing default

COSMOS 1640, 15622

Orbit data source: Space-Track

COSMOS 1640, 15622 is a payload satellite owned by GUKOS (CIS) in LEO that was launched on Thu, 21 Mar 1985 UTC via a KOSMOS 11K65M launch vehicle from the Plesetsk Missile And Space Complex (PKMTR). Payload-class satellites include a variety of spacecraft equipped with specific instruments for various scientific and technological missions. These include communications satellites like Starlink; space stations such as the ISS; scientific satellites like the Hubble; Earth observation satellites from companies like Planet Labs, Umbra, and HawkEye 360; GPS; miniature CubeSats for education and research; and military/defense satellites.

Loading next visibility...
Identifier
15622, 1985-023F
Orbit
LEO
Country
Flag of CISCIS
Related business
Manufacturer
NPO PM
Mission
Spacecraft
Bus & Motor
STRELA-1 11F625, Unknown motor
Mass
60 kg wet, 60 kg dry
Launch date (UTC)
1985-03-21 (41 years ago)
Launch vehicle
KOSMOS 11K65M
Launch site
Plesetsk Missile And Space Complex (PKMTR)
Object type
Payload
Rocket body
Debris
Shape & HBR
Unknown
Radar Cross Section
Medium (>0.1 m² and <1 m²)

Expand to show TLE details & history
Last TLE update: 16 hours ago

TLE from 16 hours ago
0 COSMOS 1640
1 15622U 85023F   25348.93349314  .00000016  00000-0  20028-3 0  9994
2 15622  74.0531 146.7388 0034501 271.0891 205.2214 12.52837528863248
Epoch: 2025-12-14T22:24Z
TLE epoch observation values (Epoch: 2025-12-14T22:24:13.807Z)
Latitude
59.76871°
Longitude
-122.3632°
Altitude
1,486.886 km
Speed
7.115 km/s
True Right ascension
19h 50m 08s
True Declination
59° 37' 58"
Sunlit
Object was in daylight at epoch
Visualization orbit readout
Latitude
Unknown
Longitude
Unknown
Altitude
Unknown
Speed
Unknown
Apparent Right ascension
Unknown
Apparent Declination
Unknown
Sunlit
N/A
Visualization observer readout
Local Sidereal Time
13:22:44
Azimuth
Unknown
Elevation
Unknown
Doppler factor
Unknown
Orbital elements
Apogee altitude
1,477.488 km
Perigee altitude
1,423.469 km
Semi-major axis
7,828.616 km
Eccentricity
0.00345
Inclination
74.0531°
RAAN
146.7388°
Arg. of periapsis
271.0891°
True anomaly
205.05359°
Mean anomaly
205.2214°
Eccentric anomaly
205.13743°
Mean motion
3.1334 °/min
Orbital period
114.89 mins
BSTAR
0.00020028
Loading maneuver chart data...
Computing Atmospheric mass density...
Loading historical data...
Loading historical data...
Loading historical data...
Loading historical data...
Loading historical data...
Loading historical data...
Loading historical data...

Documentation

Showing up to 5 results
|